Regional Weather Roundup
Issued by NWS

Home | Current Version | Previous Version | Graphics & Text | Print | Product List | Glossary On
Versions: 1 2 3 4 5 6 7 8 9 10 11 12 13 14 15 16 17 18 19 20 21 22 23 24 25 26 27 28 29 30 31 32 33 34 35 36 37 38 39 40 41 42 43 44 45 46 47 48 49 50
000
ASUS43 KOAX 160810
RWRNE

WEATHER ROUNDUP FOR NEBRASKA
NATIONAL WEATHER SERVICE OMAHA NE
300 AM CDT MON OCT 16 2017

NOTES: SATELLITE DATA IS BEING USED TO AUGMENT CLOUD COVER ABOVE
       12000 FEET.
       "FAIR" INDICATES FEW OR NO CLOUDS BELOW 12,000 FEET WITH NO
       SIGNIFICANT WEATHER AND/OR OBSTRUCTIONS TO VISIBILITY.


NEZ001>004-019>022-054>056-160900-
NEBRASKA PANHANDLE

CITY           SKY/WX    TMP DP  RH WIND       PRES   REMARKS
SCOTTSBLUFF    CLEAR     35  26  69 E6        30.29F WCI  30
ALLIANCE       CLOUDY    35  26  69 S7        30.28F WCI  29
CHADRON        CLOUDY    28  24  85 CALM      30.24F
GORDON         FAIR      38  28  69 CALM      30.25F
KIMBALL        CLOUDY    37  25  64 W5        30.34S WCI  33
SIDNEY         CLEAR     28  23  81 W9        30.32F WCI  19
$$

NEZ057>060-069>072-079>082-160900-
SOUTHWEST NEBRASKA

CITY           SKY/WX    TMP DP  RH WIND       PRES   REMARKS
NORTH PLATTE   CLEAR     32  29  88 CALM      30.34F
IMPERIAL       CLEAR     33  27  78 SW3       30.34F
LEXINGTON      CLEAR     35  32  87 CALM      30.35F
MCCOOK         CLEAR     39  30  70 SW6       30.35F WCI  35
OGALLALA       CLOUDY    32  30  91 W3        30.33F
$$

NEZ005>010-023>029-035>040-094-160900-
NORTH CENTRAL NEBRASKA

CITY           SKY/WX    TMP DP  RH WIND       PRES   REMARKS
VALENTINE      CLEAR     33  28  81 SW5       30.27F WCI  29
AINSWORTH      CLEAR     34  31  88 SW7       30.29F WCI  28
BROKEN BOW     CLEAR     33  29  85 CALM      30.33F
O`NEILL        CLEAR     37  34  92 SW6       30.30F WCI  32
ORD            CLEAR     32  28  85 CALM      30.32F
THEDFORD       CLEAR     41  30  63 CALM      30.31F
$$

NEZ041-046>049-061>064-073>077-083>087-160900-
SOUTH CENTRAL NEBRASKA

CITY           SKY/WX    TMP DP  RH WIND       PRES   REMARKS
GRAND ISLAND   CLEAR     40  37  89 S3        30.35F
AURORA         CLEAR     38  34  84 CALM      30.35F
HASTINGS       CLEAR     38  33  82 CALM      30.35F
HEBRON         CLEAR     37  35  92 CALM      30.37S
HOLDREGE       CLEAR     41  31  67 SW7       30.36S
KEARNEY        CLEAR     38  33  82 CALM      30.35F
YORK           CLEAR     37  36  93 CALM      30.35F
$$

NEZ011>018-030>034-042>045-160900-
NORTHEAST NEBRASKA

CITY           SKY/WX    TMP DP  RH WIND       PRES   REMARKS
NORFOLK        CLEAR     37  33  85 CALM      30.31F
ALBION         CLEAR     33  32  93 CALM      30.33S
BLAIR          CLEAR     44  35  70 CALM      30.33S
COLUMBUS       CLEAR     31  29  92 CALM      30.34F
FREMONT        CLEAR     38  35  91 CALM      30.33S
TEKAMAH        CLEAR     36  33  89 S6        30.32S WCI  31
WAYNE          CLEAR     33  31  94 S5        30.31S WCI  29
$$

NEZ050>053-065>068-078-088>093-160900-
SOUTHEAST NEBRASKA

CITY           SKY/WX    TMP DP  RH WIND       PRES   REMARKS
LINCOLN        CLEAR     39  36  89 CALM      30.37S
OMAHA EPPLEY   CLEAR     40  36  86 SE5       30.34S
BEATRICE       CLEAR     38  37  94 CALM      30.37S
FALLS CITY     CLEAR     38  36  92 CALM      30.36S
NEBRASKA CITY  CLEAR     44  36  72 W6        30.35S
PLATTSMOUTH    CLEAR     43  35  71 SW5       30.34S
$$

NEZ044-045-051>053-067-160900-
OMAHA AREA

CITY           SKY/WX    TMP DP  RH WIND       PRES   REMARKS
OMAHA EPPLEY   CLEAR     40  36  86 SE5       30.34S
BLAIR          CLEAR     44  35  70 CALM      30.33S
FREMONT        CLEAR     38  35  91 CALM      30.33S
MILLARD        CLEAR     40  38  95 CALM      30.34S
OFFUTT AFB     CLEAR     35  33  95 CALM      30.33S
PLATTSMOUTH    CLEAR     43  35  71 SW5       30.34S
WAHOO          FAIR      40  34  78 SW3       30.34S
$$




USA.gov is the U.S. government's official web portal to all federal, state and local government web resources and services.